Birmingham International Airport (BHM)

 

Airport Diagram
Current Weather/Forecast (MVFR Conditions)
METAR KBHM 260053Z 31003KT 10SM OVC029 21/18 A3003 RMK AO2 SLP161 T02110183
TAF KBHM 252339Z 2600/2624 00000KT P6SM OVC028 FM260500 00000KT 6SM BR OVC020 FM260700 00000KT 2SM BR OVC010 FM260900 00000KT 1/2SM FG OVC005 FM261300 00000KT 2SM BR OVC005 FM261500 00000KT P6SM BKN022 FM262000 21003KT P6SM SCT035

All Charts
General
Chart Name Download
AIRPORT DIAGRAM
TAKEOFF MINIMUMS
ALTERNATE MINIMUMS
LAHSO

Departures
Chart Name Download
BIRMINGHAM SEVEN
BIRMINGHAM SEVEN, CONT.1

Approaches
Chart Name Download
ILS OR LOC RWY 06
ILS OR LOC RWY 24
ILS RWY 06 (CAT II)
ILS RWY 24 (SA CAT II)
RNAV (RNP) Z RWY 06
RNAV (RNP) Z RWY 24
RNAV (GPS) RWY 18
RNAV (GPS) RWY 36
RNAV (GPS) Y RWY 06
RNAV (GPS) Y RWY 24
LOC RWY 18


Inbound Traffic (Arrivals)

No inbound traffic.


Outbound Traffic (Departures)

No outbound traffic.